[[{"header":{"parameterUnit":"m.s-1","parameterCategory":1,"la1":30.2991,"la2":30.254,"lo1":-89.0895,"lo2":-89.0444,"dy":0.0017,"dx":0.0017,"nx":28,"ny":28,"refTime":"2024-12-21T03:00:00:Z","depth":0,"parameterNumber":2,"parameterNumberName":"U-component_of_WINDS"},"data":[0,0,0,0,0,0,0,0,0,0,0,0,0,0,0,0,0,0,0,0,0,0,0,0,0,0,0,0,0,0,0,0,0,0,0,0,0,0,0,0,0,0,0,0,0,0,0,0,0,0,0,0,0,0,0,0,0,0,-2.0023,-2.0023,0,-2.0008,-2.0008,-2.0008,-1.9951,-1.9949,-1.9948,-1.9947,-1.9934,-1.9935,-1.9936,0,0,0,0,0,0,0,0,0,0,0,0,0,-2.0006,-2.0006,-2.0023,-2.0023,-2.0023,-2.0008,-2.0008,-2.0007,-1.9951,-1.9949,-1.9948,-1.9946,-1.9934,-1.9935,-1.9936,0,0,0,0,0,0,0,0,0,0,0,0,0,-2.0004,-2.0006,-2.0023,-1.9993,-1.999,-2.0008,-2.0008,-2.0007,-1.9951,-1.9949,-1.9947,-1.9946,-1.9933,-1.9935,-1.9936,-1.9983,0,0,-1.994,-1.9941,0,0,0,0,0,0,0,0,-2.0004,-2.0005,-1.9997,-1.9995,-1.9991,-1.9979,-1.9997,-1.9999,-1.9952,-1.9966,-1.9947,-1.9945,-1.9951,-1.9951,-1.9952,-1.9983,-1.9982,-1.994,-1.9941,-1.9941,-1.9942,0,0,0,0,0,0,0,-2.0005,-2.0005,-2.0017,-1.9997,-1.9994,-1.9981,-1.9978,-1.9997,-1.997,-1.9965,-1.996,-1.9959,-1.9949,-1.9951,-1.9951,-1.9982,-1.994,-1.9941,-1.9942,-1.9943,-2.0052,-2.0054,0,0,0,0,0,0,-2.0009,-2.0006,-2.0017,-2.0017,-1.9993,-1.9983,-1.998,-1.9985,-1.9969,-1.9965,-1.9961,-1.9957,-1.995,-1.995,-1.9951,-2.0006,-1.9941,-1.9943,-1.9943,-2.005,-2.0053,-2.0055,0,0,0,0,0,0,-2.0008,-2.001,-2.0018,-2.001,-2.001,-1.9985,-1.9991,-1.9986,-1.9988,-1.9966,-1.9962,-1.9968,-1.9948,-1.9949,-1.9976,-2.0005,-1.9943,-1.9944,-2.0048,-2.0051,-2.0054,-2.0117,0,0,0,0,0,0,-2.0008,-2.001,-2.0027,-2.0011,-2.0011,-2.0043,-1.9993,-1.9987,-1.999,-1.9984,-1.9972,-1.9968,-1.9947,-1.9974,-1.9977,-2.0006,-1.9945,-2.0045,-2.0049,-2.0053,-2.0113,-2.0122,-2.0131,0,0,0,0,0,-2.0008,-2.0046,-2.0029,-2.003,-2.0031,-2.0044,-2.0044,-2.0019,-1.9992,-2.001,-1.9996,-1.9968,-2.0001,-1.9977,-1.998,-2.001,-2.0043,-2.0048,-2.0052,-2.0108,-2.012,-2.013,0,0,0,0,0,0,-2.0067,-2.0043,-2.0024,-2.0057,-2.0053,-2.0035,-2.0056,-2.0032,-2.0036,-2.003,-1.9999,-1.9996,-2.0028,-2.0021,-1.9995,-2.0055,-2.0017,-2.0023,-2.0059,-2.007,-2.0079,-2.0081,-1.9947,0,0,0,0,0,-2.0084,-2.0096,-2.0075,-2.0107,-2.0106,-2.0081,-2.0086,-2.0067,-2.0061,-2.006,-2.0048,-2.0045,-2.0055,-2.0062,-2.0069,-2.0111,-2.0108,-2.0133,-2.0142,-2.0149,-2.0155,-2.0178,-2.0189,-2.0071,-2.0071,-2.0071,0,0,-2.012,-2.0108,-2.0118,-2.0119,-2.0113,-2.0127,-2.008,-2.0097,-2.0108,-2.0062,-2.0087,-2.0079,-2.0073,-2.0108,-2.0123,-2.0104,-2.0187,-2.0155,-2.0162,-2.0163,-2.0184,-2.0196,-2.0206,-2.0074,-2.0073,-2.0073,0,0,-2.0192,-2.0184,-2.021,-2.0206,-2.0198,-2.0181,-2.0188,-2.0173,-2.0166,-2.019,-2.0157,-2.0169,-2.0186,-2.0184,-2.0185,-2.0258,-2.0233,-2.0261,-2.0309,-2.0332,-2.0342,-2.035,-2.0378,-2.0388,-2.0267,-2.0267,-2.0267,0,-2.0237,-2.0257,-2.0227,-2.0246,-2.0248,-2.0207,-2.0235,-2.0232,-2.0228,-2.0231,-2.0208,-2.023,-2.0223,-2.0258,-2.0276,-2.0277,-2.0285,-2.0263,-2.0343,-2.035,-2.0358,-2.0384,-2.0394,-2.027,-2.027,-2.027,-2.0269,0,-2.0314,-2.0328,-2.035,-2.0346,-2.0351,-2.0374,-2.0349,-2.0358,-2.0338,-2.0324,-2.0351,-2.0341,-2.0347,-2.0353,-2.0334,-2.0386,-2.0374,-2.0348,-2.0309,-2.0373,-2.0397,-2.0407,-2.0276,-2.0274,-2.0273,-2.0272,0,0,-2.0423,-2.0403,-2.0412,-2.0411,-2.0399,-2.041,-2.0432,-2.0437,-2.0446,-2.0444,-2.0463,-2.0479,-2.0455,-2.0456,-2.0436,-2.0456,-2.0517,-2.0427,-2.0427,-2.0446,-2.0576,-2.0597,-2.0609,-2.05,-2.0501,-2.0503,-2.0577,0,-2.0493,-2.0529,-2.0504,-2.0544,-2.0558,-2.052,-2.0539,-2.0535,-2.0523,-2.0534,-2.0521,-2.0533,-2.0499,-2.05,-2.0518,-2.0506,-2.0543,-2.05,-2.0519,-2.052,-2.0523,-2.0621,-2.0643,-2.0714,-2.0586,-2.0587,-2.0588,0,-2.058,-2.0582,-2.0624,-2.0611,-2.0616,-2.0634,-2.0637,-2.0647,-2.0643,-2.0633,-2.0635,-2.061,-2.0633,-2.0594,-2.0625,-2.0596,-2.0602,-2.0598,-2.06,-2.0602,-2.0559,-2.0628,-2.0735,-2.0747,-2.0603,-2.0601,-2.06,0,-2.0658,-2.0671,-2.0699,-2.0698,-2.0684,-2.0697,-2.0692,-2.0685,-2.069,-2.0693,-2.0697,-2.0703,-2.0706,-2.0712,-2.0691,-2.0664,-2.0726,-2.0684,-2.072,-2.072,-2.0735,-2.0735,-2.0848,-2.0737,-2.0737,-2.0736,-2.0736,0,-2.074,-2.0768,-2.0734,-2.0751,-2.0781,-2.0752,-2.0783,-2.0774,-2.0768,-2.0784,-2.0751,-2.0766,-2.0736,-2.0749,-2.0732,-2.0762,-2.0763,-2.0757,-2.0753,-2.0761,-2.0762,-2.0766,-2.0761,-2.0739,-2.0738,-2.0738,-2.0737,0,-2.0833,-2.0811,-2.0839,-2.0822,-2.0819,-2.0843,-2.0829,-2.0845,-2.0831,-2.0851,-2.0854,-2.0832,-2.0846,-2.0825,-2.0836,-2.0825,-2.0866,-2.0853,-2.0868,-2.0865,-2.0902,-2.09,-2.1022,-2.1038,-2.0915,-2.0917,-2.0918,0,-2.0888,-2.0908,-2.0894,-2.0902,-2.0898,-2.0911,-2.0916,-2.0888,-2.0895,-2.0892,-2.0909,-2.0919,-2.0927,-2.095,-2.0936,-2.0945,-2.0934,-2.0976,-2.0935,-2.0943,-2.0937,-2.0937,-2.0939,-2.0985,-2.0987,-2.0988,-2.0989,0,-2.0988,-2.0976,-2.0984,-2.0989,-2.0996,-2.0998,-2.0999,-2.1007,-2.0978,-2.0988,-2.1001,-2.1007,-2.1018,-2.103,-2.1035,-2.1031,-2.1006,-2.1001,-2.101,-2.102,-2.1029,-2.1027,-2.0893,-2.0999,-2.0998,-2.0997,-2.0997,-2.0996,-2.1064,-2.1081,-2.1074,-2.1085,-2.1082,-2.1084,-2.1098,-2.1086,-2.1096,-2.1103,-2.1086,-2.1104,-2.11,-2.1104,-2.1103,-2.1118,-2.1099,-2.1112,-2.1115,-2.1119,-2.1126,-2.1025,-2.1118,-2.1118,-2.1117,-2.1117,-2.1117,0,-2.1164,-2.1158,-2.1168,-2.1169,-2.1178,-2.1152,-2.1151,-2.1161,-2.1177,-2.1175,-2.1183,-2.1199,-2.121,-2.1197,-2.1207,-2.1221,-2.121,-2.1225,-2.1224,-2.1224,-2.1141,-2.1133,-2.1234,-2.1234,-2.1234,-2.1234,-2.1234,-2.1234,-2.1217,-2.1245,-2.1233,-2.126,-2.1253,-2.127,-2.1272,-2.1274,-2.1272,-2.1292,-2.1301,-2.1292,-2.1286,-2.1295,-2.1305,-2.1301,-2.1307,-2.1326,-2.1319,-2.1241,-2.123,-2.1219,-2.1212,-2.1327,-2.1327,-2.1401,-2.1402,-2.1402]},{"header":{"parameterUnit":"m.s-1","parameterCategory":1,"la1":30.2991,"la2":30.254,"lo1":-89.0895,"lo2":-89.0444,"dy":0.0017,"dx":0.0017,"nx":28,"ny":28,"refTime":"2024-12-21T03:00:00:Z","depth":0,"parameterNumber":3,"parameterNumberName":"V-component_of_WINDS"},"data":[0,0,0,0,0,0,0,0,0,0,0,0,0,0,0,0,0,0,0,0,0,0,0,0,0,0,0,0,0,0,0,0,0,0,0,0,0,0,0,0,0,0,0,0,0,0,0,0,0,0,0,0,0,0,0,0,0,0,-1.0719,-1.0719,0,-1.0767,-1.0768,-1.0768,-1.0761,-1.076,-1.0759,-1.0759,-1.0808,-1.081,-1.0812,0,0,0,0,0,0,0,0,0,0,0,0,0,-1.062,-1.0622,-1.0719,-1.0719,-1.072,-1.0767,-1.0768,-1.0769,-1.0761,-1.076,-1.0759,-1.0758,-1.0808,-1.081,-1.0813,0,0,0,0,0,0,0,0,0,0,0,0,0,-1.0665,-1.0622,-1.0719,-1.0722,-1.0723,-1.0767,-1.0768,-1.0769,-1.0761,-1.076,-1.0759,-1.0758,-1.0807,-1.081,-1.0813,-1.0857,0,0,-1.0823,-1.0824,0,0,0,0,0,0,0,0,-1.0662,-1.0669,-1.0721,-1.0722,-1.0723,-1.0757,-1.0751,-1.0798,-1.0762,-1.0747,-1.0759,-1.0757,-1.0792,-1.0797,-1.0808,-1.0859,-1.0861,-1.0823,-1.0825,-1.0826,-1.0827,0,0,0,0,0,0,0,-1.0659,-1.0667,-1.0738,-1.0722,-1.0723,-1.0721,-1.0726,-1.076,-1.0776,-1.0748,-1.0748,-1.0753,-1.0793,-1.0805,-1.0809,-1.0862,-1.0823,-1.0826,-1.0827,-1.0829,-1.0953,-1.0954,0,0,0,0,0,0,-1.0655,-1.0664,-1.0736,-1.0739,-1.0689,-1.0724,-1.073,-1.0747,-1.0775,-1.0779,-1.0754,-1.0753,-1.0801,-1.0806,-1.0811,-1.0866,-1.0826,-1.0829,-1.0831,-1.0951,-1.0953,-1.0954,0,0,0,0,0,0,-1.0653,-1.0662,-1.0734,-1.0702,-1.0711,-1.0727,-1.0747,-1.0749,-1.0762,-1.078,-1.0783,-1.0765,-1.08,-1.0807,-1.0846,-1.0867,-1.083,-1.0833,-1.095,-1.0952,-1.0954,-1.0975,0,0,0,0,0,0,-1.065,-1.0661,-1.0678,-1.0702,-1.0713,-1.0769,-1.0748,-1.0751,-1.0767,-1.0766,-1.0791,-1.0794,-1.0799,-1.0841,-1.0849,-1.0871,-1.0836,-1.0948,-1.0951,-1.0953,-1.0972,-1.0977,-1.0981,0,0,0,0,0,-1.0647,-1.0682,-1.0679,-1.0688,-1.0734,-1.077,-1.0776,-1.0782,-1.0769,-1.0786,-1.0798,-1.0793,-1.0863,-1.0845,-1.0854,-1.0877,-1.0947,-1.095,-1.0953,-1.097,-1.0976,-1.0981,0,0,0,0,0,0,-1.066,-1.0685,-1.0682,-1.0726,-1.0746,-1.0768,-1.0791,-1.0788,-1.0812,-1.081,-1.0816,-1.0821,-1.0861,-1.0873,-1.0852,-1.0922,-1.0903,-1.0908,-1.0913,-1.0919,-1.0924,-1.0921,-1.0838,0,0,0,0,0,-1.0668,-1.0695,-1.0715,-1.0751,-1.0762,-1.0774,-1.079,-1.0793,-1.0814,-1.0822,-1.0837,-1.0858,-1.0884,-1.0902,-1.0928,-1.0973,-1.0979,-1.0993,-1.0998,-1.1002,-1.1007,-1.1033,-1.104,-1.0965,-1.0965,-1.0965,0,0,-1.0684,-1.0701,-1.0718,-1.0755,-1.077,-1.0799,-1.0782,-1.0812,-1.0833,-1.0827,-1.0865,-1.0877,-1.09,-1.0943,-1.0962,-1.0954,-1.1028,-1.1006,-1.1008,-1.1011,-1.1037,-1.1044,-1.105,-1.0967,-1.0967,-1.0966,0,0,-1.073,-1.0744,-1.0777,-1.0794,-1.0818,-1.0826,-1.0834,-1.0857,-1.0864,-1.0903,-1.0899,-1.0924,-1.097,-1.0987,-1.1002,-1.1053,-1.105,-1.1061,-1.1086,-1.1112,-1.1118,-1.1123,-1.1143,-1.115,-1.1065,-1.1066,-1.1066,0,-1.0747,-1.079,-1.0794,-1.0826,-1.0842,-1.0838,-1.0871,-1.0886,-1.0918,-1.0929,-1.0919,-1.0977,-1.0992,-1.1039,-1.1052,-1.1063,-1.1073,-1.1059,-1.1116,-1.1122,-1.1127,-1.1146,-1.1153,-1.1067,-1.1067,-1.1067,-1.1066,0,-1.0811,-1.0841,-1.0864,-1.0895,-1.0914,-1.0946,-1.0956,-1.0974,-1.0975,-1.0984,-1.1024,-1.1042,-1.1072,-1.1082,-1.1083,-1.113,-1.1124,-1.1115,-1.1097,-1.1135,-1.1153,-1.1161,-1.1069,-1.1068,-1.1068,-1.1068,0,0,-1.0868,-1.09,-1.0909,-1.0923,-1.095,-1.0972,-1.1004,-1.1033,-1.105,-1.1071,-1.1099,-1.1137,-1.1129,-1.1146,-1.1148,-1.117,-1.1212,-1.1158,-1.1159,-1.1169,-1.1266,-1.1275,-1.1283,-1.1209,-1.121,-1.1211,-1.1265,0,-1.0917,-1.0974,-1.0979,-1.103,-1.1058,-1.1053,-1.1081,-1.11,-1.111,-1.1134,-1.1144,-1.1173,-1.1159,-1.1169,-1.119,-1.1202,-1.1232,-1.1198,-1.1236,-1.1237,-1.1232,-1.1292,-1.1301,-1.1351,-1.1272,-1.1273,-1.1274,0,-1.0982,-1.1006,-1.106,-1.1083,-1.1095,-1.112,-1.1148,-1.1171,-1.1193,-1.1198,-1.1216,-1.1216,-1.1249,-1.1228,-1.1274,-1.1252,-1.1267,-1.1275,-1.1277,-1.1282,-1.1259,-1.1301,-1.1367,-1.1375,-1.1285,-1.1284,-1.1283,0,-1.102,-1.1066,-1.1104,-1.1116,-1.1143,-1.1161,-1.1173,-1.1194,-1.1211,-1.1235,-1.1246,-1.1273,-1.1289,-1.131,-1.1317,-1.1301,-1.1363,-1.1342,-1.137,-1.137,-1.1385,-1.1384,-1.1456,-1.1391,-1.1391,-1.1391,-1.1391,0,-1.1076,-1.111,-1.1122,-1.1146,-1.1184,-1.1189,-1.1226,-1.1237,-1.1255,-1.1281,-1.1278,-1.1303,-1.131,-1.1336,-1.1341,-1.138,-1.1386,-1.1392,-1.1393,-1.1393,-1.1393,-1.1405,-1.1403,-1.1393,-1.1392,-1.1392,-1.1392,0,-1.1126,-1.1135,-1.1177,-1.1199,-1.1206,-1.1233,-1.1252,-1.1275,-1.1283,-1.1317,-1.1325,-1.1338,-1.1369,-1.1377,-1.1413,-1.1417,-1.1463,-1.146,-1.1456,-1.1457,-1.1484,-1.1482,-1.1568,-1.158,-1.1505,-1.1506,-1.1506,0,-1.1162,-1.1188,-1.1213,-1.123,-1.1244,-1.1271,-1.1289,-1.1295,-1.1314,-1.134,-1.136,-1.139,-1.1415,-1.1464,-1.1477,-1.1505,-1.1504,-1.1532,-1.1508,-1.1508,-1.1507,-1.1506,-1.1509,-1.1537,-1.1538,-1.1539,-1.1539,0,-1.1226,-1.1229,-1.1255,-1.1283,-1.1304,-1.1326,-1.1347,-1.1362,-1.137,-1.1391,-1.1423,-1.1442,-1.1479,-1.1509,-1.1537,-1.155,-1.1547,-1.1546,-1.1554,-1.1556,-1.1553,-1.1557,-1.147,-1.1545,-1.1544,-1.1544,-1.1544,-1.1543,-1.1271,-1.1294,-1.1316,-1.1345,-1.1362,-1.1382,-1.1405,-1.1416,-1.1442,-1.1474,-1.1475,-1.1509,-1.153,-1.1568,-1.1582,-1.1609,-1.16,-1.1612,-1.1615,-1.1618,-1.1622,-1.1547,-1.1613,-1.1613,-1.1613,-1.1613,-1.1613,0,-1.1336,-1.135,-1.1377,-1.1407,-1.143,-1.1424,-1.1447,-1.1467,-1.1497,-1.1517,-1.1541,-1.1577,-1.1606,-1.1622,-1.1651,-1.167,-1.1669,-1.1677,-1.1677,-1.168,-1.1626,-1.1617,-1.1677,-1.1677,-1.1677,-1.1677,-1.1677,-1.1677,-1.1373,-1.1413,-1.1419,-1.1467,-1.148,-1.1514,-1.1528,-1.1546,-1.1562,-1.1603,-1.1627,-1.1637,-1.1655,-1.1686,-1.1712,-1.1716,-1.1728,-1.1738,-1.1741,-1.169,-1.1684,-1.1678,-1.1669,-1.174,-1.174,-1.1793,-1.1793,-1.1794]}]]